1st Responders/1st Detectors/Storm Spotters Weather Summary for Jessamine County, KY

Forecast Maps


Reg. NEXRAD Animation


National Fire Danger: Day 1 & 2 Map

Current NWS Watch/Warnings

SPC Convective Day 1 Outlook


Day 2 Outlook

(Click images to enlarge|Page will refresh every 5 minutes)
UK Ag. Weather Center Desktop Severe Weather Service[HERE]
Jessamine County, KY Hazardous Weather Outlook Webcast
(9 AM to 9 PM Mon-Fri)
[Fast]
[Dial-up]


UKAWC 1st Detectors/1st Responders Precision Weather Forecast For JESSAMINE County, Kentucky
(based on the NWS County Digital Forecast)

ISSUED AT 08:00 UTC ON SUNDAY SEP 15 2019
DAY SUNDAY
EDT 3HR 5A 6A 7A 8A 9A 10A 11A NOON 1P 2P 3P 4P 5P 6P 7P
MAX/MIN -- -- -- 56° -- -- -- -- -- -- -- -- -- -- 90°
TEMP 59° 58° 58° 58° 63° 70° 76° 81° 85° 88° 90° 90° 90° 86° 83°
SKY COVER 3% 3% 2% 2% 6% 9% 11% 11% 11% 11% 13% 15% 17% 15% 13%
Clouds
DEW PT 52° 52° 52° 52° 54° 56° 56° 56° 54° 52° 52° 52° 52° 54° 54°
RH 77% 80% 83% 80% 70% 61% 48% 41% 36% 30% 28% 27% 28% 32% 36%
POP 12HR -- -- -- 0% -- -- -- -- -- -- -- -- -- -- --
RAIN/SNOW (liq.equ) -- -- -- 0.00in -- -- -- -- -- 0.00in -- -- -- -- --
SNOWFALL -- -- -- 0in -- -- -- -- -- 0in -- -- -- -- --
WIND SPEED(MPH) 2 2 5 2 5 6 6 6 5 5 2 2 1 1 1
WIND Gust(MPH) 6 6 6 6 7 7 8 7 7 6 5 5 2 2 2
WIND DIR E E E E E SE SE SE S S S SW SW S E
DEW Lgt Dew Lgt Dew -- Lgt Dew -- -- -- -- -- -- -- -- -- -- --
HeatIndex 59 58 58 58 63 70 76 81 83 85 87 88 87 85 82
Rain Showers -- -- -- -- -- -- -- -- -- -- -- -- -- -- --
Thunder Storm -- -- -- -- -- -- -- -- -- -- -- -- -- -- --
WIND CHILL -- -- -- -- -- -- -- -- -- -- -- -- -- -- --
SPRAY COND
DRY COND
LIVESTOCK HEATSTRESS 58.97 58.09 58.07 58.09 62.31 67.60 71.08 73.80 75.78 76.76 77.64 77.47 77.64 75.83 74.48



DAY MONDAY TUESDAY WEDNESDAY THURSDAY FRIDAY SATURDAY
EDT 6HR 8P 9P 10P 11P MIDN 1A 2A 3A 4A 5A 6A 7A 8A 9A 10A 11A NOON 1P 2P 3P 4P 5P 8P 11P 2A 5A 8A 11A 2P 5P 8P 2A 8A 2P 8P 2A 8A 2P 8P 2A 8A 2P 8P 2A 8A 2P 8P
MAX/MIN -- -- -- -- -- -- -- -- -- -- -- -- 63° -- -- -- -- -- -- -- -- 90° -- -- -- -- 65° -- -- 86° -- -- 61° 85° -- -- 63° 88° -- -- 65° 88° -- -- 65° 88° --
TEMP 79° 76° 74° 70° 70° 67° 67° 65° 65° 63° 63° 63° 63° 68° 74° 81° 85° 88° 90° 90° 90° 90° 81° 74° 70° 67° 65° 76° 83° 83° 76° 67° 61° 81° 74° 68° 63° 85° 79° 70° 67° 85° 79° 68° 65° 85° 77°
SKY COVER 11% 12% 13% 15% 13% 12% 11% 13% 16% 18% 16% 13% 11% 6% 9% 10% 10% 10% 10% 16% 21% 27% 11% 15% 12% 13% 38% 36% 36% 24% 23% 16% 7% 9% 19% 16% 14% 35% 26% 26% 21% 28% 22% 21% 22% 31% 28%
Clouds
DEW PT 56° 56° 56° 56° 56° 56° 56° 56° 56° 56° 56° 56° 56° 58° 59° 61° 61° 63° 63° 63° 63° 63° 67° 65° 65° 63° 63° 65° 65° 63° 61° 61° 58° 61° 59° 58° 58° 63° 63° 61° 61° 63° 63° 61° 61° 61° 63°
RH 44% 50% 53% 59% 61% 65% 67% 70% 70% 75% 78% 78% 75% 67% 59% 50% 46% 43% 42% 40% 40% 42% 60% 76% 83% 90% 90% 70% 55% 49% 57% 78% 87% 50% 59% 70% 84% 45% 58% 75% 81% 49% 57% 78% 83% 44% 60%
POP 12HR 1% -- -- -- -- -- -- -- -- -- -- -- 1% -- -- -- -- -- -- -- -- -- 17% -- -- -- 1% -- -- -- 1% -- 1% -- 1% -- 0% -- 3% -- 5% -- 6% -- 6% -- 6%
RAIN/SNOW (liq.equ) 0.00in -- -- -- -- -- 0.00in -- -- -- -- -- 0.00in -- -- -- -- -- 0.00in -- -- -- 0.00in -- 0.00in -- 0.00in -- 0.00in -- 0.00in -- -- -- -- -- -- -- -- -- -- -- -- -- -- -- --
SNOWFALL 0in -- -- -- -- -- 0in -- -- -- -- -- 0in -- -- -- -- -- 0in -- -- -- 0in -- 0in -- 0in -- 0in -- 0in -- -- -- -- -- -- -- -- -- -- -- -- -- -- -- --
WIND SPEED(MPH) 1 1 2 2 2 2 1 1 2 2 1 1 1 1 2 2 2 5 5 5 6 6 5 5 1 2 2 6 6 7 6 5 2 5 5 2 2 5 2 2 2 6 1 1 1 6 1
WIND DIR E E SE SE S S S S S S S S S SW W NW NW NW NW NW NW NW N N NE NE NE NE NE NE NE E E E E SE S S S S S W S S S W N
HeatIndex 80 76 74 70 70 67 67 65 65 63 63 63 63 68 74 81 85 88 91 92 92 91 84 74 70 67 65 76 84 85 76 67 61 82 74 68 63 86 79 70 67 86 79 68 65 86 77
Rain Showers -- -- -- -- -- -- -- -- -- -- -- -- -- -- -- -- -- -- Slight Chance Slight Chance Slight Chance Slight Chance -- -- -- -- -- -- -- -- -- -- -- -- -- -- -- -- -- -- -- -- -- -- -- -- --
Thunder Storm -- -- -- -- -- -- -- -- -- -- -- -- -- -- -- -- -- -- Slight Chance Slight Chance Slight Chance Slight Chance -- -- -- -- -- -- -- -- -- -- -- -- -- -- -- -- -- -- -- -- -- -- -- -- --
WIND CHILL -- -- -- -- -- -- -- -- -- -- -- -- -- -- -- -- -- -- -- -- -- -- -- -- -- -- -- -- -- -- -- -- -- -- -- -- -- -- -- -- -- -- -- -- -- -- --
SPRAY COND
DRY COND
LIVESTOCK HEATSTRESS 72.78 71.27 70.07 67.47 67.60 65.42 65.51 63.98 63.98 62.42 62.49 62.49 62.42 66.33 70.57 74.89 77.22 78.85 80.05 79.70 79.70 80.05 76.12 71.99 68.95 66.55 64.66 73.16 77.01 76.21 71.93 66.01 60.84 74.89 70.57 66.48 62.63 77.07 74.33 68.46 66.14 77.65 74.22 66.89 64.42 76.93 73.00

Click on individual weather variable above in left-hand column (ie., TEMP, RH, QPF 12HR) to view state forecast maps






NWS 48 Hr. Forecast Maps,

Regional Hourly Observations For JESSAMINE County, Kentucky
Issued at 400 AM EDT SUN SEP 15 2019
NORTHEAST KENTUCKY
  
CITY           SKY/WX    TMP DP  RH WIND       PRES   REMARKS
LEXINGTON      FAIR      60  51  72 E5        30.22F                  
COVINGTON      FAIR      59  55  87 S5        30.20F                  
FRANKFORT      FAIR      56  54  93 CALM      30.20F                  


Current NOWCAST not available:
Nowcasts are not issued routinely during fair weather. Only when
precipitation or other significant weather is occuring in this county will these
forecasts be issued. Currently, there is no short term forecast in effect.


Fire Weather Forecast For JESSAMINE County, KY
Provided by the National Weather Service:

Issued at: Sun Sep 15 04:05:01 EDT 2019


                      Today        Tonight      Mon          

CLOUD COVER           Mclear       Mclear       Mclear       
PRECIP TYPE           None         None         Tstms        
CHANCE PRECIP (%)     0            0            10           
TEMP (24H TREND)      91 (+8)      62 (+5)      92           
RH % (24H TREND)      26 (-10)     82 (-4)      39           
20FTWND-VAL/AM(MPH)   Lgt/Var                   Lgt/Var      
20FTWND-RDG/PM(MPH)   Lgt/Var      Lgt/Var      Lgt/Var      
PRECIP AMOUNT         0.00         0.00         0.00         
MIXING HGT(FT-AGL/MSL)4430                      6738         
TRANSPORT WND (MPH)   S  5                      W 15         
VENT RATE (KT-FT)     16250                     91812        
DISPERSION            Poor                      Good         
DSI                   SLGT UNSTBL  SLGT UNSTBL  SLGT UNSTBL  
LAL                   1            1            2            
HAINES INDEX          6            5            3            
ADI EARLY             18 GEN POOR  2 VERY POOR  59 GEN GOOD  
ADI LATE              17 GEN POOR  2 VERY POOR  67 GOOD      
MAX LVORI EARLY       5            3            4            
MAX LVORI LATE        2            4            2            

REMARKS...ADI IS ATMOSPHERIC DISPERSION INDEX BY LAVDAS.        
LVORI IS LOW VISIBILITY OCCURRENCE RISK INDEX.

.TUESDAY...Mostly clear. Lows in the mid 60s. Highs in the upper
80s. North winds around 5 mph. 
.WEDNESDAY...Mostly clear. Lows around 60. Highs in the upper
80s. Northeast winds around 5 mph. 
.THURSDAY...Mostly clear. Lows in the lower 60s. Highs in the
upper 80s. South winds up to 5 mph. 
.FRIDAY...Partly cloudy. Lows in the mid 60s. Highs in the upper
80s. Southwest winds up to 5 mph. 
.SATURDAY...Partly cloudy. Lows in the mid 60s. Highs in the
upper 80s. Southwest winds up to 5 mph. 

SPC's Fire Weather Web Tool (Excellent!), SPC's Fire Weather Outlooks, NWS Fire Weather WEB, Fire Danger Class Map,
Keetch-Byram Drought Index, ROMAN Web, Haines Index ,
WFAS's 10-hr Dead Fuel Moist., WFAS's 100-hr Dead Fuel Moist., Probablity of Ignition, Visual blackness Map, Palmer Drought Index, HPC's Rainfall Forecast Maps


Hazardous Weather Outlook For JESSAMINE County, Kentucky
311 AM EDT Sun Sep 15 2019 /211 AM CDT Sun Sep 15 2019/

 DAY ONE  Today and Tonight.

No hazardous weather is expected at this time.

 DAYS TWO THROUGH SEVEN  Monday through Saturday.

Isolated storms are possible across Central Kentucky Monday 
afternoon. One or two storms may have some gusty winds, quick heavy 
burst of rain and cloud to ground lightning strikes. 

 SPOTTER INFORMATION STATEMENT  

Spotter activation is not anticipated.

Latest JESSAMINE County, Kentucky Watches, Warnings and Advisories.
Additional Drought Info.: UKAWC Drought Page, Kentucky Drought Watch


7-Day Forecast For JESSAMINE County, KY

TODAY
Mostly sunny. Highs in the lower 90s. East winds up to 5 mph shifting to the south in the afternoon.

TONIGHT
Mostly clear. Lows in the lower 60s. South winds up to 5 mph.

MONDAY
Mostly sunny with a 20 percent chance of showers and thunderstorms. Highs in the lower 90s. Northwest winds up to 5 mph.

MONDAY NIGHT
Mostly clear. Lows in the mid 60s. North winds up to 5 mph.

TUESDAY
Partly cloudy. Highs in the upper 80s. Northeast winds up to 5 mph.

TUESDAY NIGHT
Mostly clear. Lows in the lower 60s.

WEDNESDAY
Mostly sunny. Highs in the upper 80s.

WEDNESDAY NIGHT
Mostly clear. Lows in the mid 60s.

THURSDAY
Mostly sunny. Highs in the upper 80s.

THURSDAY NIGHT
Partly cloudy. Lows in the mid 60s.

FRIDAY
Partly cloudy. Highs in the upper 80s.

FRIDAY NIGHT
Partly cloudy. Lows in the mid 60s.

SATURDAY
Partly cloudy. Highs in the upper 80s.

Ag Weather Center, Department of Biosystems & Agricultural Engineering, University of Kentucky